Home > Weather > Włocławek > Past weeks

Flag for Poland Past Weather in Włocławek, Poland — Yesterday and Last 2 Weeks

Now
69 °F

Mild.


Feels Like: 69 °F
Forecast: 64 / 83 °F
Wind: 3 mph from Southeast

Location: Plock

Current Time: May 29, 2016 at 9:42:31 AM

Latest Report: May 29, 2016 at 8:00 AM


Visibility: 15 mi

Pressure: 29.90 "Hg

Humidity: 69%

Dew Point: 58 °F

Location of WłocławekLocation

Past Weather in Włocławek — Graph

°F

Włocławek Temperature Yesterday

Maximum temperature yesterday: 79 °F (at 3:00 PM)
Minimum temperature yesterday: 52 °F (at 5:00 AM)
Average temperature yesterday: 65 °F

High & Low Weather Summary for the Past Weeks

 TemperatureHumidityPressure
High81 °F (May 23, 4:00 PM)97% (May 26, 5:00 AM)30.08 "Hg (May 26, 5:00 AM)
Low38 °F (May 19, 5:00 AM)27% (May 24, 4:00 PM)29.41 "Hg (May 14, 8:00 AM)
Average59 °F68%29.91 "Hg
* Reported May 14 8:00 AM — May 29 8:00 AM, Włocławek, Weather by CustomWeather, © 2016

Note: Actual official high and low records may vary slightly from our data, if they occured in-between our weather recording intervals... More about our weather records

Advertising

Włocławek Weather History for the Previous 24 Hours

Scroll right to see more
 ConditionsComfort  
Time TempWeatherWind HumidityBarometerVisibility
8:00 AM
Sun, May 29
69 °FMild.3 mph69%29.90 "Hg15 mi
7:00 AM64 °FMild.3 mph78%29.90 "Hg19 mi
6:00 AM62 °FCool.3 mph79%29.91 "Hg13 mi
5:00 AM61 °FCool.2 mph81%29.92 "Hg11 mi
4:00 AM60 °FCool.2 mph89%29.93 "Hg7 mi
3:00 AM59 °FCool.1 mph89%29.93 "Hg6 mi
2:00 AM60 °FCool.2 mph88%29.94 "Hg7 mi
1:00 AM60 °FCool.2 mph88%29.95 "Hg8 mi
12:00 AM62 °FCool.3 mph84%29.95 "Hg11 mi
11:00 PM
Sat, May 28
64 °FMild.5 mph80%29.95 "Hg12 mi
10:00 PM66 °FMild.5 mph77%29.96 "Hg12 mi
9:00 PM68 °FMild.3 mph76%29.96 "Hg14 mi
8:00 PM71 °FMild.2 mph65%29.94 "Hg18 mi
7:00 PM73 °FMild.1 mph61%29.94 "Hg22 mi
3:00 PM79 °FWarm.5 mph42%29.95 "Hg19 mi
2:00 PM73 °FLots of rain. Cloudy.2 mph61%29.97 "Hg6 mi
1:00 PM78 °FWarm.5 mph44%29.98 "Hg19 mi
12:00 PM76 °FLight rain. Cloudy.3 mph50%29.99 "Hg12 mi
11:00 AM76 °FMild.3 mph54%29.99 "Hg17 mi
10:00 AM73 °FMild.3 mph59%30.01 "Hg16 mi
9:00 AM70 °FMild.3 mph66%30.01 "Hg16 mi
Weather by CustomWeather, © 2016

See weather overviewHow to use our weather pages